Regional Weather Roundup
Issued by NWS

Current Version | Previous Version | Text Only | Print | Product List | Glossary On
Versions: 1 2 3 4 5 6 7 8 9 10 11 12 13 14 15 16 17 18 19 20 21 22 23 24 25 26 27 28 29 30 31 32 33 34 35 36 37 38 39 40 41 42 43 44 45 46 47 48 49 50
800
ASUS43 KMPX 191810
RWRMN
WEATHER ROUNDUP FOR MINNESOTA
NATIONAL WEATHER SERVICE TWIN CITIES/CHANHASSEN MN
100 PM CDT SUN MAY 19 2019


NOTE: "FAIR" INDICATES FEW OR NO CLOUDS BELOW 12,000 FEET WITH NO
SIGNIFICANT WEATHER AND/OR OBSTRUCTIONS TO VISIBILITY. N/A MEANS
CURRENT SKY AND/OR WEATHER CONDITIONS ARE NOT AVAILABLE.

MNZ060>063-068>070-191900-
   Twin Cities Metro

CITY           SKY/WX    TMP DP  RH WIND       PRES   REMARKS
TWIN CITIES    LGT RAIN  40  37  89 N20G33    29.74R
6HR MIN TEMP:  40; 6HR MAX TEMP:  45; 6HR PCP:  0.28;

ST PAUL        LGT RAIN  40  36  86 N20G31    29.75R FOG
CRYSTAL        LGT RAIN  41  38  89 N14G23    29.75R
BLAINE         LGT RAIN  41  39  93 N16G28    29.76R FOG
LAKEVILLE      RAIN      45  43  93 N18G26    29.71S
EDEN PRAIRIE   LGT RAIN  42  38  85 N15G24    29.73R
6HR MIN TEMP:  42; 6HR MAX TEMP:  45; 6HR PCP:  0.26;

SOUTH ST PAUL  LGT RAIN  41  40  94 N16G29    29.73R
LAKE ELMO      RAIN      39  37  93 N15G26    29.74R
$$
MNZ001>005-007-008-013>017-022>024-027-028-191900-
   Northwest Minnesota

CITY           SKY/WX    TMP DP  RH WIND       PRES   REMARKS
BEMIDJI        FAIR      48  30  50 N16G22    29.96F
HALLOCK        PTSUNNY   55  19  24 N14G20    30.05F
ROSEAU         FAIR      54  27  35 E21G26    30.04F
WARROAD        FAIR      50  34  53 NE14      30.06F
THIEF RVR FALL PTSUNNY   53  25  33 NE14G21   30.00F
CROOKSTON      CLOUDY    54  27  35 NE14G20   30.00F
FOSSTON        PTSUNNY   48  34  57 NE17G23   29.98F
DETROIT LAKES  FAIR      43  36  75 NE15G24   29.95F
MOORHEAD       LGT RAIN  45  39  81 NE21      29.99S
PARK RAPIDS    CLOUDY    43  35  73 NE13G21   29.92F
MAHNOMEN       MOCLDY    45  38  76 NE8G17    29.97F
$$
MNZ006-009>011-018-025>026-191900-
   North Central Minnesota

CITY           SKY/WX    TMP DP  RH WIND       PRES   REMARKS
BAUDETTE       FAIR      52  25  35 NE18G24   30.02F
FLAG ISLAND    FAIR      46  27  46 N20       30.06F
INTL FALLS     FAIR      52  24  33 NE14G28   30.00F
6HR MIN TEMP:  41; 6HR MAX TEMP:  52;

WASKISH        FAIR      54  27  35 NE17G24   29.98F
BIG FORK       FAIR      48  25  40 N8        30.00F
LONGVILLE      DRIZZLE   43  30  61 N13G20    29.94R
GRAND RAPIDS   LGT RAIN  40  29  64 E7        29.96R
CRANE LAKE     FAIR      48  23  37 N9        29.99F
ORR            FAIR      48  18  29 NE8       29.94F
COOK           FAIR      45  21  39 NE13G21   29.95S
WALKER         CLOUDY    43  30  58 NE13G21   29.94S
$$
MNZ012-019>021-037-191900-
   Northeast Minnesota

CITY           SKY/WX    TMP DP  RH WIND       PRES   REMARKS
DULUTH         LGT SNOW  35  31  85 NE18G29   29.89S VSB 3/4 WCI  24
6HR MIN TEMP:  35; 6HR MAX TEMP:  38; 6HR PCP:  0.36;

ELY            CLOUDY    43  19  39 E9G20     29.94S
HIBBING        LGT RAIN  38  29  70 E12G22    29.95R
EVELETH        LGT RAIN  37  32  81 E8        29.96R
DULUTH HARBOR  RAIN      37  36  93 NE32G39   29.90F
TWO HARBORS    LGT SNOW  36  30  80 NE15G23   29.91R
SILVER BAY     LGT RAIN  37  28  70 NE14G26   29.91S
GRAND MARAIS     N/A     46  24  42 NE13G26   29.92S
$$
MNZ029>031-032-039>041-046>048-054>057-064-191900-
   West Central Minnesota

CITY           SKY/WX    TMP DP  RH WIND       PRES   REMARKS
FERGUS FALLS   PTSUNNY   43  37  81 NE15G21   29.90R
WHEATON        CLOUDY    43  37  81 N16G24    29.94R
MORRIS         LGT RAIN  41  39  93 NE20G26   29.84R
ALEXANDRIA     LGT RAIN  43  36  76 NE17G28   29.88R
ELBOW LAKE     DRIZZLE   41  38  91 E18G25    29.90R
WADENA         LGT RAIN  41  36  81 NE14G23   29.90S
GLENWOOD       LGT RAIN  39  37  93 NE26G37   29.85R
BENSON         LGT RAIN  41  37  87 E15G24    29.86R
ORTONVILLE     LGT RAIN  41  37  87 NE20      29.89R
MADISON        CLOUDY    45  43  93 NE18G28   29.87R
WILLMAR        DRIZZLE   45  41  87 NE20G31   29.83S
$$
MNZ033>034-036-042>043-049>051-058-059-191900-
   Central Minnesota

CITY           SKY/WX    TMP DP  RH WIND       PRES   REMARKS
ST CLOUD       LGT RAIN  37  34  89 N17G26    29.84R
6HR MIN TEMP:  35; 6HR MAX TEMP:  41; 6HR PCP:  0.65;

SAUK CENTRE    LGT RAIN  38  36  90 NE17G26   29.87R
PAYNESVILLE    LGT RAIN  39  39  98 NE22G30   29.83S
AITKIN         LGT SNOW  32  30  93 NE8       29.91S WCI  25
PINE RIVER     RAIN      37  34  87 NE8G20    29.96S
BRAINERD       LGT RAIN  38  34  85 NE10      29.92R FOG
STAPLES        DRIZZLE   39  37  93 NE9G18    29.90S
LONG PRAIRIE   MIX PCPN  37  36  93 NE13G23   29.88S
LITTLE FALLS   MIX PCPN  36  36 100 NE9G21    29.89S
LITCHFIELD     LGT RAIN  41  41 100 NE17G28   29.81R
BUFFALO        LGT RAIN  40  37  88 MISG      29.81R
MAPLE LAKE     LGT RAIN  40  38  93 N17       29.82R
HUTCHINSON     DRIZZLE   43  40  91 N20G25    29.78S
$$
MNZ037-044-045-052-053-191900-
   East Central Minnesota

CITY           SKY/WX    TMP DP  RH WIND       PRES   REMARKS
PRINCETON      DRIZZLE   39  36  87 N13G25    29.83R
MORA           LGT RAIN  34  32  93 N9G18     29.86R WCI  26
CAMBRIDGE      LGT RAIN  39  32  75 N16G22    29.80S
RUSH CITY      RAIN      34  33  97 N13G29    29.80R WCI  25
MOOSE LAKE     LGT RAIN  34  32  93 NE12G20   29.86S WCI  25
HINCKLEY       LGT RAIN  36  34  93 N20G30    29.83R
CLOQUET        FLURRIES  34  32  93 NE20G26   29.89S WCI  22
MCGREGOR       CLOUDY    34  32  93 NE8G22    29.92S WCI  27
$$
MNZ071>073-080-081-089-090-097-098-191900-
   Southwest Minnesota

CITY           SKY/WX    TMP DP  RH WIND       PRES   REMARKS
MONTEVIDEO     DRIZZLE   41  39  93 E17G28    29.84R
GRANITE FALLS  CLOUDY    45  40  82 NE18G32   29.83R
CANBY          CLOUDY    43  41  93 NE17      29.86R FOG
MARSHALL       CLOUDY    44  40  85 NE20G25   29.81R
REDWOOD FALLS  CLOUDY    45  39  79 NE10G29   29.77R
OLIVIA         CLOUDY    41  37  87 NE22G32   29.78R
PIPESTONE      CLOUDY    43  41  93 NE15G21   29.80R
WINDOM         CLOUDY    45  41  87 N14G21    29.76R
WORTHINGTON    CLOUDY    45  41  86 N13       29.78R
JACKSON        CLOUDY    45  45 100 N12G17    29.76R
SLAYTON        CLOUDY    42  40  93 N15       29.80  FOG
$$
MNZ065>067-074>077-082>085-091>093-191900-
   South Central Minnesota

CITY           SKY/WX    TMP DP  RH WIND       PRES   REMARKS
MANKATO        CLOUDY    47  42  83 N23       29.71F
NEW ULM        CLOUDY    46  39  76 NE15G26   29.74S
FAIRMONT       CLOUDY    46  42  86 N17       29.72R
GLENCOE        CLOUDY    44  44 100 N12G22    29.76R
OWATONNA       PTSUNNY   45  45 100 N20G26    29.69R
WASECA         CLOUDY    45  41  87 N21       29.70F
ALBERT LEA     CLOUDY    46  46 100 N15G23    29.68R
$$
MNZ078>079-086>088-094>096-191900-
   Southeast Minnesota

CITY           SKY/WX    TMP DP  RH WIND       PRES   REMARKS
ROCHESTER      CLOUDY    47  43  86 N21       29.64R
6HR MIN TEMP:  43; 6HR MAX TEMP:  47; 6HR PCP:  0.15;

RED WING       DRIZZLE   46  43  87 N12G18    29.66S
STANTON        LGT RAIN  45  43  93 N21G29    29.68R
DODGE CENTER   CLOUDY    46  43  87 N18G25    29.66R
WINONA         CLOUDY    48  48 100 NW10      29.59R FOG
AUSTIN         CLOUDY    50  41  71 N14G23    29.67R
PRESTON        PTSUNNY   47  44  88 NW16      29.62R
$$
ABBREVIATIONS USED IN REMARKS
   TC - TEMPERATURES IN CELSIUS
  WCI - WIND CHILL INDEX
   HX - HEAT INDEX
  VSB - VISIBILITY
$$




USA.gov is the U.S. government's official web portal to all federal, state and local government web resources and services.